sat.trackr.live / text

‹ back to catalog

STARLINK-37655

NORAD 69142 · 2026-110U

PAYLOAD ACTIVE UNKNOWN

§ Identity

Operator
Country
US
Launch date
2026-05-20
Launch site
AFWTR
Launch vehicle
Mass (kg)
RCS (m²)

Purposes: comms

External: N2YO · Heavens-Above · Gunter

§ Orbital elements

Epoch: 2026-09-18T02:47:18.922272Z

Period
93.91 min
Inclination
97.2853°
Eccentricity
0.0001426
Mean motion
15.33440618 rev/d
Perigee alt
464.6 km
Apogee alt
466.5 km
Semi-major
6,843.7 km
B*
2.4661e-4
RAAN
96.2522°
Arg perigee
104.4483°
Mean anomaly
255.6918°
Rev number
1,985

§ Raw data

STARLINK-376551 69142U 26110U   26261.11619123  .00007894  00000+0  24661-3 0  99922 69142  97.2853  96.2522 0001426 104.4483 255.6918 15.33440618 19855

JSON: /api/v1/satellites/69142 · /tle

For live sub-satellite position, see the globe view (requires WebGL).

§ Visibility from observer

Set your observer location to see the next 7 days of passes ≥ 10°. The values pass through the URL so the page stays shareable.

No JS? Fill the form by hand. The geolocation button needs JavaScript.